Location: Devore Heights
(34.2372°N, 117.4156°W)
Time: 18:27:10
(UTC+00:00)

Vanguard 1 Rocket - Pass Details

Date: 20 September 2024
Orbit: 650 x 4218 km, 34.3° (Epoch: 04 October)

Event Time Altitude Azimuth Distance (km) Brightness Sun altitude
Rises 16:10:03 0° 288° (WNW) 7,150 11.4 30.1°
Reaches altitude 10° 16:14:23 10° 284° (WNW) 6,483 11.3 31.0°
Maximum altitude 16:36:52 56° 214° (SW) 4,674 11.4 35.2°
Drops below altitude 10° 17:00:19 10° 143° (SE) 6,665 12.9 39.4°
Sets 17:04:55 0° 139° (SE) 7,343 12.8 40.2°
